Time,TemperatureF,DewpointF,PressureIn,WindDirection,WindDirectionDegrees,WindSpeedMPH,WindSpeedGustMPH,Humidity,HourlyPrecipIn,Conditions,Clouds,dailyrainin,SolarRadiationWatts/m^2,SoftwareType,DateUTC
2013-10-15 00:18:00,45.5,44.0,30.17,SSE,155,0.0,-999.0,95,-99.99,,,0.00,0,weatherlink.com 1.10,2013-10-15 05:18:00,
2013-10-15 00:35:00,46.1,45.0,30.16,SE,143,3.0,-999.0,96,-99.99,,,0.00,0,weatherlink.com 1.10,2013-10-15 05:35:00,
2013-10-15 00:51:00,46.4,45.0,30.16,SSE,147,1.0,-999.0,96,-99.99,,,0.00,0,weatherlink.com 1.10,2013-10-15 05:51:00,
2013-10-15 01:11:00,46.7,46.0,30.14,SE,145,0.0,-999.0,96,-99.99,,,0.00,0,weatherlink.com 1.10,2013-10-15 06:11:00,
2013-10-15 01:28:00,45.5,44.0,30.14,SE,145,3.0,-999.0,94,-99.99,,,0.00,0,weatherlink.com 1.10,2013-10-15 06:28:00,
2013-10-15 01:45:00,44.5,43.0,30.13,SE,145,0.0,-999.0,94,-99.99,,,0.00,0,weatherlink.com 1.10,2013-10-15 06:45:00,
2013-10-15 02:10:00,47.4,46.0,30.12,SSE,147,2.0,-999.0,96,-99.99,,,0.00,0,weatherlink.com 1.10,2013-10-15 07:10:00,
2013-10-15 02:27:00,48.3,47.0,30.12,SSE,147,2.0,-999.0,96,-99.99,,,0.00,0,weatherlink.com 1.10,2013-10-15 07:27:00,
2013-10-15 02:43:00,48.7,48.0,30.11,SSE,151,1.0,-999.0,96,-99.99,,,0.00,0,weatherlink.com 1.10,2013-10-15 07:43:00,
2013-10-15 03:02:00,47.8,46.0,30.10,SSE,152,1.0,-999.0,94,-99.99,,,0.00,0,weatherlink.com 1.10,2013-10-15 08:02:00,
2013-10-15 03:19:00,46.9,46.0,30.10,SSE,147,0.0,-999.0,95,-99.99,,,0.00,0,weatherlink.com 1.10,2013-10-15 08:19:00,
2013-10-15 03:36:00,48.0,47.0,30.09,SE,141,0.0,-999.0,96,-99.99,,,0.00,0,weatherlink.com 1.10,2013-10-15 08:36:00,
2013-10-15 03:53:00,49.0,48.0,30.07,SSE,152,0.0,-999.0,96,-99.99,,,0.00,0,weatherlink.com 1.10,2013-10-15 08:53:00,
2013-10-15 04:13:00,49.0,48.0,30.08,SSE,147,1.0,-999.0,97,-99.99,,,0.00,0,weatherlink.com 1.10,2013-10-15 09:13:00,
2013-10-15 04:30:00,46.8,46.0,30.08,SSE,152,0.0,-999.0,97,-99.99,,,0.00,0,weatherlink.com 1.10,2013-10-15 09:30:00,
2013-10-15 04:48:00,49.0,48.0,30.07,SSE,151,1.0,-999.0,98,-99.99,,,0.00,0,weatherlink.com 1.10,2013-10-15 09:48:00,
2013-10-15 05:07:00,50.6,50.0,30.06,SSE,154,0.0,-999.0,99,-99.99,,,0.00,0,weatherlink.com 1.10,2013-10-15 10:07:00,
2013-10-15 05:24:00,51.5,51.0,30.05,SSE,168,1.0,-999.0,99,-99.99,,,0.00,0,weatherlink.com 1.10,2013-10-15 10:24:00,
2013-10-15 05:40:00,52.3,52.0,30.05,South,175,2.0,-999.0,99,-99.99,,,0.00,0,weatherlink.com 1.10,2013-10-15 10:40:00,
2013-10-15 05:57:00,53.0,53.0,30.04,South,174,2.0,-999.0,99,-99.99,,,0.00,0,weatherlink.com 1.10,2013-10-15 10:57:00,
2013-10-15 06:15:00,53.2,53.0,30.03,South,172,0.0,-999.0,98,-99.99,,,0.00,0,weatherlink.com 1.10,2013-10-15 11:15:00,
2013-10-15 06:31:00,53.3,52.0,30.02,North,350,0.0,-999.0,97,-99.99,,,0.00,0,weatherlink.com 1.10,2013-10-15 11:31:00,
2013-10-15 06:48:00,53.5,53.0,30.01,South,176,7.0,-999.0,97,-99.99,,,0.00,0,weatherlink.com 1.10,2013-10-15 11:48:00,
2013-10-15 07:07:00,53.9,53.0,30.00,South,178,3.0,-999.0,96,-99.99,,,0.00,0,weatherlink.com 1.10,2013-10-15 12:07:00,
2013-10-15 07:23:00,54.2,53.0,29.99,SE,137,2.0,-999.0,95,-99.99,,,0.00,9,weatherlink.com 1.10,2013-10-15 12:23:00,
2013-10-15 07:41:00,54.3,53.0,29.98,South,186,1.0,-999.0,95,-99.99,,,0.00,12,weatherlink.com 1.10,2013-10-15 12:41:00,
2013-10-15 07:58:00,54.6,53.0,29.98,SSE,165,6.0,-999.0,94,-99.99,,,0.00,28,weatherlink.com 1.10,2013-10-15 12:58:00,
2013-10-15 08:20:00,54.6,53.0,29.97,South,186,2.0,-999.0,93,-99.99,,,0.00,44,weatherlink.com 1.10,2013-10-15 13:20:00,
2013-10-15 08:36:00,54.9,53.0,29.96,North,359,4.0,-999.0,92,-99.99,,,0.00,44,weatherlink.com 1.10,2013-10-15 13:36:00,
2013-10-15 08:53:00,55.2,53.0,29.97,SSE,152,6.0,-999.0,91,-99.99,,,0.00,44,weatherlink.com 1.10,2013-10-15 13:53:00,
2013-10-15 09:12:00,55.7,53.0,29.95,South,171,3.0,-999.0,90,-99.99,,,0.00,44,weatherlink.com 1.10,2013-10-15 14:12:00,
2013-10-15 09:29:00,56.3,52.0,29.93,SSW,200,7.0,-999.0,87,-99.99,,,0.00,44,weatherlink.com 1.10,2013-10-15 14:29:00,
2013-10-15 09:46:00,56.6,52.0,29.93,SW,230,3.0,-999.0,84,-99.99,,,0.00,44,weatherlink.com 1.10,2013-10-15 14:46:00,
2013-10-15 10:04:00,56.1,52.0,29.93,SSW,210,4.0,-999.0,85,-99.99,,,0.00,21,weatherlink.com 1.10,2013-10-15 15:04:00,
2013-10-15 10:21:00,55.4,51.0,29.92,South,184,6.0,-999.0,86,-99.99,,,0.04,26,weatherlink.com 1.10,2013-10-15 15:21:00,
2013-10-15 10:39:00,54.9,52.0,29.92,SSW,200,1.0,-999.0,90,-99.99,,,0.07,25,weatherlink.com 1.10,2013-10-15 15:39:00,
2013-10-15 10:56:00,54.8,53.0,29.91,SW,234,2.0,-999.0,92,-99.99,,,0.08,40,weatherlink.com 1.10,2013-10-15 15:56:00,
2013-10-15 11:16:00,54.8,53.0,29.89,SSW,192,0.0,-999.0,92,-99.99,,,0.09,35,weatherlink.com 1.10,2013-10-15 16:16:00,
2013-10-15 11:33:00,54.8,53.0,29.89,SW,227,0.0,-999.0,94,-99.99,,,0.11,16,weatherlink.com 1.10,2013-10-15 16:33:00,
2013-10-15 11:50:00,54.8,54.0,29.88,South,186,3.0,-999.0,96,-99.99,,,0.14,16,weatherlink.com 1.10,2013-10-15 16:50:00,
2013-10-15 12:11:00,54.8,54.0,29.87,SW,232,2.0,-999.0,97,-99.99,,,0.18,39,weatherlink.com 1.10,2013-10-15 17:11:00,
2013-10-15 12:28:00,54.8,54.0,29.86,SSW,196,4.0,-999.0,98,-99.99,,,0.21,40,weatherlink.com 1.10,2013-10-15 17:28:00,
2013-10-15 12:45:00,54.9,54.0,29.85,South,182,5.0,-999.0,98,-99.99,,,0.24,21,weatherlink.com 1.10,2013-10-15 17:45:00,
2013-10-15 13:03:00,55.1,55.0,29.84,SW,229,2.0,-999.0,98,-99.99,,,0.27,40,weatherlink.com 1.10,2013-10-15 18:03:00,
2013-10-15 13:20:00,55.1,55.0,29.82,WSW,253,3.0,-999.0,100,-99.99,,,0.30,30,weatherlink.com 1.10,2013-10-15 18:20:00,
2013-10-15 13:36:00,55.2,55.0,29.82,SW,229,7.0,-999.0,100,-99.99,,,0.30,35,weatherlink.com 1.10,2013-10-15 18:36:00,
2013-10-15 13:53:00,55.5,56.0,29.81,SW,236,7.0,-999.0,100,-99.99,,,0.31,53,weatherlink.com 1.10,2013-10-15 18:53:00,
2013-10-15 14:13:00,55.7,56.0,29.79,SW,229,7.0,-999.0,100,-99.99,,,0.31,48,weatherlink.com 1.10,2013-10-15 19:13:00,
2013-10-15 14:30:00,56.0,56.0,29.79,SW,226,6.0,-999.0,100,-99.99,,,0.31,67,weatherlink.com 1.10,2013-10-15 19:30:00,
2013-10-15 14:47:00,56.3,56.0,29.78,SW,234,5.0,-999.0,100,-99.99,,,0.31,77,weatherlink.com 1.10,2013-10-15 19:47:00,
2013-10-15 15:05:00,56.6,57.0,29.78,SW,232,5.0,-999.0,100,-99.99,,,0.31,65,weatherlink.com 1.10,2013-10-15 20:05:00,
2013-10-15 15:23:00,56.9,57.0,29.77,WSW,239,5.0,-999.0,100,-99.99,,,0.31,69,weatherlink.com 1.10,2013-10-15 20:23:00,
2013-10-15 15:40:00,57.0,57.0,29.77,SW,229,5.0,-999.0,100,-99.99,,,0.31,40,weatherlink.com 1.10,2013-10-15 20:40:00,
2013-10-15 15:57:00,57.3,57.0,29.77,SW,217,4.0,-999.0,100,-99.99,,,0.31,39,weatherlink.com 1.10,2013-10-15 20:57:00,
2013-10-15 16:15:00,57.7,58.0,29.75,NNW,340,3.0,-999.0,100,-99.99,,,0.31,33,weatherlink.com 1.10,2013-10-15 21:15:00,
2013-10-15 16:33:00,57.9,58.0,29.76,SW,232,0.0,-999.0,100,-99.99,,,0.31,33,weatherlink.com 1.10,2013-10-15 21:33:00,
2013-10-15 16:50:00,58.0,58.0,29.76,WSW,253,0.0,-999.0,100,-99.99,,,0.31,18,weatherlink.com 1.10,2013-10-15 21:50:00,
2013-10-15 17:11:00,58.3,58.0,29.75,WSW,248,0.0,-999.0,100,-99.99,,,0.31,18,weatherlink.com 1.10,2013-10-15 22:11:00,
2013-10-15 17:28:00,58.5,-99.9,29.75,WSW,253,2.0,-999.0,-999,-99.99,,,0.31,39,weatherlink.com 1.10,2013-10-15 22:28:00,
2013-10-15 17:45:00,58.5,59.0,29.74,WSW,254,0.0,-999.0,100,-99.99,,,0.31,14,weatherlink.com 1.10,2013-10-15 22:45:00,
2013-10-15 18:03:00,58.3,58.0,29.74,North,0,0.0,-999.0,100,-99.99,,,0.31,16,weatherlink.com 1.10,2013-10-15 23:03:00,
2013-10-15 18:20:00,58.2,58.0,29.73,WSW,257,0.0,-999.0,100,-99.99,,,0.31,0,weatherlink.com 1.10,2013-10-15 23:20:00,
2013-10-15 18:39:00,58.2,58.0,29.75,WSW,254,7.0,-999.0,100,-99.99,,,0.31,0,weatherlink.com 1.10,2013-10-15 23:39:00,
2013-10-15 18:57:00,57.7,58.0,29.75,West,272,10.0,-999.0,100,-99.99,,,0.31,0,weatherlink.com 1.10,2013-10-15 23:57:00,
2013-10-15 19:15:00,56.6,57.0,29.76,WSW,254,6.0,-999.0,100,-99.99,,,0.31,0,weatherlink.com 1.10,2013-10-16 00:15:00,
2013-10-15 19:33:00,56.1,56.0,29.77,WSW,250,5.0,-999.0,100,-99.99,,,0.31,0,weatherlink.com 1.10,2013-10-16 00:33:00,
2013-10-15 19:50:00,55.4,55.0,29.77,West,277,10.0,-999.0,100,-99.99,,,0.31,0,weatherlink.com 1.10,2013-10-16 00:50:00,
2013-10-15 20:11:00,54.2,-99.9,29.79,WSW,256,12.0,-999.0,-999,-99.99,,,0.31,0,weatherlink.com 1.10,2013-10-16 01:11:00,
2013-10-15 20:28:00,53.2,49.0,29.80,WNW,287,10.0,-999.0,86,-99.99,,,0.31,0,weatherlink.com 1.10,2013-10-16 01:28:00,
2013-10-15 20:45:00,52.6,48.0,29.80,WSW,250,6.0,-999.0,84,-99.99,,,0.31,0,weatherlink.com 1.10,2013-10-16 01:45:00,
2013-10-15 21:04:00,51.2,46.0,29.80,WSW,254,2.0,-999.0,83,-99.99,,,0.31,0,weatherlink.com 1.10,2013-10-16 02:04:00,
2013-10-15 21:22:00,50.5,46.0,29.80,West,260,1.0,-999.0,83,-99.99,,,0.31,0,weatherlink.com 1.10,2013-10-16 02:22:00,
2013-10-15 21:38:00,49.9,45.0,29.80,West,264,3.0,-999.0,84,-99.99,,,0.31,0,weatherlink.com 1.10,2013-10-16 02:38:00,
2013-10-15 21:56:00,49.6,45.0,29.80,West,260,8.0,-999.0,85,-99.99,,,0.31,0,weatherlink.com 1.10,2013-10-16 02:56:00,
2013-10-15 22:14:00,49.3,45.0,29.80,West,272,6.0,-999.0,86,-99.99,,,0.31,0,weatherlink.com 1.10,2013-10-16 03:14:00,
2013-10-15 22:31:00,49.3,45.0,29.80,West,261,7.0,-999.0,86,-99.99,,,0.31,0,weatherlink.com 1.10,2013-10-16 03:31:00,
2013-10-15 22:49:00,48.9,45.0,29.80,WSW,243,4.0,-999.0,86,-99.99,,,0.31,0,weatherlink.com 1.10,2013-10-16 03:49:00,
2013-10-15 23:10:00,48.3,44.0,29.80,SW,236,4.0,-999.0,86,-99.99,,,0.31,0,weatherlink.com 1.10,2013-10-16 04:10:00,
2013-10-15 23:27:00,48.3,44.0,29.80,WSW,250,7.0,-999.0,86,-99.99,,,0.31,0,weatherlink.com 1.10,2013-10-16 04:27:00,
2013-10-15 23:44:00,48.1,44.0,29.80,WSW,250,5.0,-999.0,87,-99.99,,,0.31,0,weatherlink.com 1.10,2013-10-16 04:44:00,